Location: Ku?niki
(51.4449°N, 17.8974°E)
Time: 16:17:13
(UTC+00:00)

DMSP B5D2-2 - Pass Details

Date: 18 September 2020
Orbit: 790 x 805 km, 98.3° (Epoch: 22 October)

Event Time Altitude Azimuth Distance (km) Brightness Sun altitude
Rises 18:37:44 0° 16° (NNE) 3,334 7.4 -16.3°
Reaches altitude 10° 18:40:06 10° 19° (NNE) 2,399 6.6 -16.6°
Maximum altitude 18:45:24 69° 102° (ESE) 863 4.0 -17.4°
Drops below altitude 10° 18:50:39 10° 187° (S) 2,381 6.3 -18.1°
Sets 18:52:59 0° 189° (S) 3,306 7.1 -18.4°
